Flag for Switzerland Weather past 2 weeks in Renens, Vaud, Switzerland

Now
49 °F

Cool.


Feels Like: 49 °F
Forecast: 39 / 69 °F
Wind: 2 mph from North

Location: Aigle


UV Index: 3 (Moderate)

Visibility: N/A


Pressure: 29.69 "Hg

Humidity: 92%

Dew point: 47 °F

Location of RenensLocation

Historic Weather in Renens

°F

Renens temperature yesterday

Maximum temperature yesterday: 59 °F (at 3:00 PM)
Minimum temperature yesterday: 35 °F (at 6:00 AM)
Average temperature yesterday: 49 °F

Past Weeks' High & Low Weather Summary

 TemperatureHumidityPressure
High69 °F (Apr 7, 5:00 PM)96% (Apr 6, 6:00 AM)30.32 "Hg (Apr 6, 6:00 AM)
Low33 °F (Apr 17, 6:00 AM)27% (Apr 15, 6:00 PM)29.62 "Hg (Apr 20, 7:00 PM)
Average52 °F66%30.04 "Hg
* Reported Apr 6 4:00 AM — Apr 21 4:00 AM, Renens, Weather by CustomWeather, © 2014

Note: Actual official high and low records may vary slightly from our data, if they occured in-between our weather recording intervals... More about our weather records

Advertising

Historic Weather Conditions — Data for Previous 24 hours

 ConditionsComfort  
Time TempWeatherWind HumidityBarometerVisibility
4:00 AM
Apr 21
49 °FCool.2 mph92%29.69 "HgN/A
3:00 AM49 °FCool.3 mph93%29.69 "HgN/A
2:00 AM49 °FCool.7 mph91%29.69 "HgN/A
1:00 AM51 °FCool.9 mph86%29.69 "HgN/A
12:00 AM53 °FCool.2 mph61%29.67 "HgN/A
11:00 PM
Apr 20
54 °FCool.5 mph58%29.67 "HgN/A
10:00 PM53 °FCool.2 mph65%29.66 "HgN/A
9:00 PM54 °FCool.2 mph53%29.64 "HgN/A
8:00 PM56 °FOvercast.3 mph42%29.62 "Hg16 mi
7:00 PM58 °FRefreshingly cool.5 mph39%29.62 "HgN/A
6:00 PM58 °FRefreshingly cool.2 mph41%29.62 "HgN/A
5:00 PM58 °FOvercast.7 mph42%29.62 "Hg19 mi
4:00 PM58 °FRefreshingly cool.7 mph50%29.63 "HgN/A
3:00 PM59 °FRefreshingly cool.10 mph46%29.63 "HgN/A
2:00 PM56 °FOvercast.10 mph59%29.65 "Hg19 mi
1:00 PM53 °FCool.8 mph66%29.68 "HgN/A
12:00 PM52 °FCool.9 mph64%29.70 "HgN/A
11:00 AM51 °FPartly sunny.3 mph67%29.72 "Hg19 mi
10:00 AM48 °FCool.1 mph72%29.73 "HgN/A
9:00 AM44 °FQuite cool.1 mph86%29.76 "HgN/A
8:00 AM39 °FPassing clouds.3 mph91%29.78 "Hg16 mi
7:00 AM36 °FChilly.6 mph92%29.79 "HgN/A
6:00 AM35 °FChilly.2 mph95%29.79 "HgN/A
Weather by CustomWeather, © 2014

See weather overview